Weather History for KRSW - March, 2013

Change the Weather History Date:

Wednesday, March 6, 2013

  Actual Average (KFMY) Record (KFMY)
Temperature  
Mean Temperature 62 °F 69 °F  
Max Temperature 70 °F 79 °F 92 °F (1944)
Min Temperature 52 °F 58 °F 42 °F (2010)
Degree Days  
Heating Degree Days 3 1  
Month to date heating degree days 6  
Since 1 July heating degree days 266  
Cooling Degree Days 0 5  
Month to date cooling degree days 30  
Year to date cooling degree days 215  
Growing Degree Days 12 (Base 50)    
Moisture  
Dew Point 49 °F    
Average Humidity 64    
Maximum Humidity 90    
Minimum Humidity 30    
Precipitation  
Precipitation 0.00 in 0.10 in 1.31 in (1940)
Month to date precipitation 0.52  
Year to date precipitation 4.61  
Sea Level Pressure  
Sea Level Pressure 30.08 in    
Wind  
Wind Speed 9 mph (WNW)    
Max Wind Speed 17 mph    
Max Gust Speed 24 mph    
Visibility 10 miles    
Events Rain    
T = Trace of Precipitation, MM = Missing Value Source: NWS Daily Summary

Daily Weather History Graph

Daily Weather History Graph

Search for Another Location

Airport or City:

Trip Planner

Search our weather history database for the weather conditions in past years. The results will help you decide how hot, cold, wet, or windy it might be!

Date:

Astronomy

Mar. 06, 2013 Rise Set
Actual Time 6:45 AM EST 6:31 PM EST
Civil Twilight 6:22 AM EST 6:54 PM EST
Nautical Twilight 5:55 AM EST 7:21 PM EST
Astronomical Twilight 5:28 AM EST 7:48 PM EST
Moon 2:30 AM EST (3/6) 1:34 PM EST (3/6)
Length of Visible Light 12h 32m
Length of Day
11h 45m
Waning Crescent, 30% of the Moon is Illuminated
Mar 6
Waning Crescent
Mar 11
New
Mar 19
First Quarter
Mar 27
Full
Apr 3
Last Quarter

Hourly Weather History & Observations

Time (EST) Temp. Dew Point Humidity Pressure Visibility Wind Dir Wind Speed Gust Speed Precip Events Conditions
12:53 AM 60.1 °F 57.0 °F 90% 30.07 in 10.0 mi SW 5.8 mph - N/A   Clear
1:53 AM 60.1 °F 57.0 °F 90% 30.06 in 10.0 mi SSW 5.8 mph - N/A   Clear
2:53 AM 60.1 °F 57.0 °F 90% 30.04 in 10.0 mi WSW 6.9 mph - N/A   Mostly Cloudy
3:53 AM 62.1 °F 59.0 °F 90% 30.02 in 10.0 mi SSW 9.2 mph - N/A   Mostly Cloudy
4:53 AM 62.1 °F 57.9 °F 86% 30.02 in 10.0 mi SW 6.9 mph - N/A   Scattered Clouds
5:53 AM 62.1 °F 57.0 °F 84% 30.03 in 10.0 mi SW 6.9 mph - N/A   Partly Cloudy
6:53 AM 63.0 °F 57.9 °F 84% 30.04 in 10.0 mi SW 10.4 mph - N/A   Clear
7:53 AM 68.0 °F 61.0 °F 78% 30.05 in 10.0 mi SW 11.5 mph - N/A   Scattered Clouds
8:53 AM 70.0 °F 61.0 °F 73% 30.07 in 10.0 mi WSW 15.0 mph - N/A   Mostly Cloudy
9:15 AM 66.2 °F 60.8 °F 83% 30.09 in 10.0 mi NNW 11.5 mph 21.9 mph N/A   Mostly Cloudy
9:42 AM 64.4 °F 57.2 °F 77% 30.10 in 10.0 mi North 11.5 mph 19.6 mph N/A   Overcast
9:53 AM 63.0 °F 57.9 °F 84% 30.10 in 8.0 mi North 9.2 mph - 0.00 in Rain Light Rain
10:53 AM 63.0 °F 42.1 °F 46% 30.12 in 10.0 mi North 9.2 mph - 0.00 in   Overcast
11:53 AM 66.9 °F 39.9 °F 37% 30.11 in 10.0 mi NNW 10.4 mph - N/A   Scattered Clouds
12:53 PM 69.1 °F 36.0 °F 30% 30.08 in 10.0 mi West 8.1 mph - N/A   Scattered Clouds
1:53 PM 70.0 °F 39.0 °F 32% 30.05 in 10.0 mi WNW 11.5 mph 17.3 mph N/A   Clear
2:53 PM 69.1 °F 45.0 °F 42% 30.03 in 10.0 mi WNW 12.7 mph 20.7 mph N/A   Clear
3:53 PM 66.0 °F 39.0 °F 37% 30.04 in 10.0 mi NW 17.3 mph 24.2 mph N/A   Clear
4:53 PM 64.4 °F 37.4 °F 37% 30.06 in 10.0 mi WNW 10.4 mph 23.0 mph N/A   Clear
5:53 PM 61.0 °F 41.0 °F 48% 30.06 in 10.0 mi WNW 10.4 mph 16.1 mph N/A   Clear
6:53 PM 57.9 °F 41.0 °F 53% 30.09 in 10.0 mi WNW 10.4 mph - N/A   Clear
7:53 PM 55.9 °F 41.0 °F 57% 30.10 in 10.0 mi NW 8.1 mph 17.3 mph N/A   Clear
8:53 PM 55.0 °F 41.0 °F 59% 30.11 in 10.0 mi NW 5.8 mph - N/A   Clear
9:53 PM 55.0 °F 42.1 °F 62% 30.13 in 10.0 mi NNW 5.8 mph - N/A   Clear
10:53 PM 54.0 °F 41.0 °F 62% 30.14 in 10.0 mi North 5.8 mph - N/A   Clear
11:53 PM 52.0 °F 39.9 °F 63% 30.15 in 10.0 mi North 9.2 mph - N/A   Clear